Time,TemperatureF,DewpointF,PressureIn,WindDirection,WindDirectionDegrees,WindSpeedMPH,WindSpeedGustMPH,Humidity,HourlyPrecipIn,Conditions,Clouds,dailyrainin,SoftwareType,DateUTC
2013-04-11 00:00:00,48.3,46.7,29.78,SSE,163,0.0,4.0,94,0.00,,,0.00,Wunderground v.1.15,2013-04-11 04:00:00,
2013-04-11 00:05:00,48.3,46.7,29.78,SSE,163,0.0,4.0,94,0.00,,,0.00,Wunderground v.1.15,2013-04-11 04:05:00,
2013-04-11 00:10:00,48.2,46.6,29.78,SSE,163,0.0,4.0,94,0.00,,,0.00,Wunderground v.1.15,2013-04-11 04:10:00,
2013-04-11 00:15:00,48.0,46.4,29.78,SSE,163,0.0,4.0,94,0.00,,,0.00,Wunderground v.1.15,2013-04-11 04:15:00,
2013-04-11 00:25:00,47.9,46.3,29.78,SSE,163,0.0,4.0,94,0.00,,,0.00,Wunderground v.1.15,2013-04-11 04:25:00,
2013-04-11 00:35:00,47.7,46.1,29.77,SSE,163,0.0,4.0,94,0.00,,,0.00,Wunderground v.1.15,2013-04-11 04:35:00,
2013-04-11 00:40:00,47.7,46.1,29.77,SSE,163,0.0,4.0,94,0.00,,,0.00,Wunderground v.1.15,2013-04-11 04:40:00,
2013-04-11 00:50:00,47.6,46.0,29.78,SSE,163,0.0,4.0,94,0.00,,,0.00,Wunderground v.1.15,2013-04-11 04:50:00,
2013-04-11 01:00:00,47.6,46.0,29.79,SSE,163,0.0,4.0,94,0.00,,,0.00,Wunderground v.1.15,2013-04-11 05:00:00,
2013-04-11 01:10:00,47.4,45.8,29.79,SSE,163,0.0,4.0,94,0.00,,,0.00,Wunderground v.1.15,2013-04-11 05:10:00,
2013-04-11 01:20:00,47.6,46.0,29.79,SSE,163,0.0,4.0,94,0.00,,,0.00,Wunderground v.1.15,2013-04-11 05:20:00,
2013-04-11 01:30:00,47.4,45.8,29.78,SSE,163,0.0,4.0,94,0.00,,,0.00,Wunderground v.1.15,2013-04-11 05:30:00,
2013-04-11 01:35:00,47.4,45.8,29.78,SSE,163,0.0,4.0,94,0.00,,,0.00,Wunderground v.1.15,2013-04-11 05:35:00,
2013-04-11 01:45:00,47.4,45.8,29.77,SSE,163,0.0,4.0,94,0.00,,,0.01,Wunderground v.1.15,2013-04-11 05:45:00,
2013-04-11 01:55:00,47.4,46.0,29.77,SSE,163,0.0,4.0,95,0.00,,,0.01,Wunderground v.1.15,2013-04-11 05:55:00,
2013-04-11 02:05:00,47.6,46.2,29.76,SSE,163,0.0,4.0,95,0.00,,,0.01,Wunderground v.1.15,2013-04-11 06:05:00,
2013-04-11 02:10:00,47.6,46.2,29.76,SSE,163,0.0,4.0,95,0.00,,,0.01,Wunderground v.1.15,2013-04-11 06:10:00,
2013-04-11 02:20:00,47.6,46.2,29.76,SSE,163,0.0,4.0,95,0.00,,,0.01,Wunderground v.1.15,2013-04-11 06:20:00,
2013-04-11 02:25:00,47.6,46.2,29.76,SSE,163,0.0,4.0,95,0.00,,,0.01,Wunderground v.1.15,2013-04-11 06:25:00,
2013-04-11 02:35:00,47.6,46.2,29.75,SSE,163,0.0,4.0,95,0.00,,,0.01,Wunderground v.1.15,2013-04-11 06:35:00,
2013-04-11 02:45:00,47.6,46.2,29.75,SSE,163,0.0,4.0,95,0.00,,,0.01,Wunderground v.1.15,2013-04-11 06:45:00,
2013-04-11 02:55:00,47.4,46.0,29.75,SSE,163,0.0,4.0,95,0.00,,,0.01,Wunderground v.1.15,2013-04-11 06:55:00,
2013-04-11 03:05:00,47.6,46.2,29.75,SSE,163,0.0,4.0,95,0.00,,,0.01,Wunderground v.1.15,2013-04-11 07:05:00,
2013-04-11 03:15:00,47.7,46.3,29.75,SSE,163,0.0,4.0,95,0.00,,,0.01,Wunderground v.1.15,2013-04-11 07:15:00,
2013-04-11 03:25:00,47.7,46.3,29.75,SSE,163,0.0,4.0,95,0.00,,,0.01,Wunderground v.1.15,2013-04-11 07:25:00,
2013-04-11 03:35:00,47.7,46.3,29.75,SSE,163,0.0,4.0,95,0.00,,,0.01,Wunderground v.1.15,2013-04-11 07:35:00,
2013-04-11 03:45:00,47.9,46.8,29.74,SSE,163,0.0,4.0,96,0.00,,,0.01,Wunderground v.1.15,2013-04-11 07:45:00,
2013-04-11 03:55:00,47.9,46.8,29.74,SSE,163,0.0,4.0,96,0.00,,,0.01,Wunderground v.1.15,2013-04-11 07:55:00,
2013-04-11 04:05:00,48.0,46.9,29.75,NE,34,0.0,4.0,96,0.00,,,0.01,Wunderground v.1.15,2013-04-11 08:05:00,
2013-04-11 04:15:00,48.0,46.9,29.75,North,11,3.0,4.0,96,0.00,,,0.01,Wunderground v.1.15,2013-04-11 08:15:00,
2013-04-11 04:25:00,47.7,46.3,29.75,NNE,30,3.0,4.0,95,0.00,,,0.01,Wunderground v.1.15,2013-04-11 08:25:00,
2013-04-11 04:35:00,47.4,46.0,29.76,NE,38,2.0,4.0,95,0.00,,,0.01,Wunderground v.1.15,2013-04-11 08:35:00,
2013-04-11 04:45:00,47.3,45.9,29.77,North,360,2.0,4.0,95,0.00,,,0.01,Wunderground v.1.15,2013-04-11 08:45:00,
2013-04-11 04:50:00,47.3,45.9,29.77,North,355,2.0,4.0,95,0.00,,,0.01,Wunderground v.1.15,2013-04-11 08:50:00,
2013-04-11 05:00:00,47.1,45.7,29.77,NE,45,1.0,4.0,95,0.00,,,0.01,Wunderground v.1.15,2013-04-11 09:00:00,
2013-04-11 05:10:00,47.1,45.7,29.77,NE,45,0.0,4.0,95,0.00,,,0.01,Wunderground v.1.15,2013-04-11 09:10:00,
2013-04-11 05:20:00,47.1,45.7,29.78,NE,45,1.0,4.0,95,0.00,,,0.01,Wunderground v.1.15,2013-04-11 09:20:00,
2013-04-11 05:30:00,47.1,45.7,29.77,NE,45,1.0,4.0,95,0.00,,,0.01,Wunderground v.1.15,2013-04-11 09:30:00,
2013-04-11 05:40:00,47.0,45.6,29.77,NNE,15,2.0,4.0,95,0.00,,,0.01,Wunderground v.1.15,2013-04-11 09:40:00,
2013-04-11 05:45:00,46.8,45.4,29.79,NNE,24,2.0,4.0,95,0.00,,,0.01,Wunderground v.1.15,2013-04-11 09:45:00,
2013-04-11 05:55:00,46.8,45.4,29.79,NNE,17,1.0,4.0,95,0.00,,,0.01,Wunderground v.1.15,2013-04-11 09:55:00,
2013-04-11 06:05:00,46.7,45.3,29.81,ENE,57,2.0,4.0,95,0.00,,,0.01,Wunderground v.1.15,2013-04-11 10:05:00,
2013-04-11 06:15:00,46.4,45.0,29.82,NE,42,3.0,4.0,95,0.00,,,0.01,Wunderground v.1.15,2013-04-11 10:15:00,
2013-04-11 06:20:00,46.4,45.0,29.82,NNE,30,2.0,2.0,95,0.00,,,0.01,Wunderground v.1.15,2013-04-11 10:20:00,
2013-04-11 06:30:00,46.2,44.8,29.84,NNE,25,2.0,4.0,95,0.00,,,0.01,Wunderground v.1.15,2013-04-11 10:30:00,
2013-04-11 06:35:00,46.0,44.4,29.84,NNW,344,3.0,5.0,94,0.00,,,0.01,Wunderground v.1.15,2013-04-11 10:35:00,
2013-04-11 06:45:00,45.8,44.2,29.85,NE,35,2.0,4.0,94,0.00,,,0.01,Wunderground v.1.15,2013-04-11 10:45:00,
2013-04-11 06:55:00,45.7,43.8,29.85,North,355,3.0,4.0,93,0.00,,,0.01,Wunderground v.1.15,2013-04-11 10:55:00,
2013-04-11 07:05:00,45.8,43.9,29.85,North,11,2.0,4.0,93,0.00,,,0.01,Wunderground v.1.15,2013-04-11 11:05:00,
2013-04-11 07:15:00,45.8,43.9,29.86,NNE,32,2.0,4.0,93,0.00,,,0.01,Wunderground v.1.15,2013-04-11 11:15:00,
2013-04-11 07:25:00,46.0,43.8,29.86,NNE,15,2.0,4.0,92,0.00,,,0.01,Wunderground v.1.15,2013-04-11 11:25:00,
2013-04-11 07:35:00,46.0,43.8,29.86,NNE,30,2.0,5.0,92,0.00,,,0.01,Wunderground v.1.15,2013-04-11 11:35:00,
2013-04-11 07:45:00,46.1,43.3,29.87,NNE,32,3.0,3.0,90,0.00,,,0.01,Wunderground v.1.15,2013-04-11 11:45:00,
2013-04-11 07:55:00,46.2,43.4,29.87,NNE,17,3.0,4.0,90,0.00,,,0.01,Wunderground v.1.15,2013-04-11 11:55:00,
2013-04-11 08:05:00,46.5,43.7,29.86,NE,53,2.0,4.0,90,0.00,,,0.01,Wunderground v.1.15,2013-04-11 12:05:00,
2013-04-11 08:15:00,47.1,44.0,29.84,NE,46,3.0,3.0,89,0.00,,,0.01,Wunderground v.1.15,2013-04-11 12:15:00,
2013-04-11 08:20:00,47.3,43.6,29.84,ENE,57,3.0,4.0,87,0.00,,,0.01,Wunderground v.1.15,2013-04-11 12:20:00,
2013-04-11 08:30:00,47.3,42.7,29.87,North,5,2.0,2.0,84,0.00,,,0.01,Wunderground v.1.15,2013-04-11 12:30:00,
2013-04-11 08:40:00,47.6,43.0,29.87,North,5,1.0,4.0,84,0.00,,,0.01,Wunderground v.1.15,2013-04-11 12:40:00,
2013-04-11 08:50:00,47.7,42.5,29.88,NNE,33,1.0,4.0,82,0.00,,,0.01,Wunderground v.1.15,2013-04-11 12:50:00,
2013-04-11 09:00:00,48.0,42.8,29.90,NNE,33,0.0,4.0,82,0.00,,,0.01,Wunderground v.1.15,2013-04-11 13:00:00,
2013-04-11 09:10:00,47.9,41.4,29.90,North,355,2.0,4.0,78,0.00,,,0.01,Wunderground v.1.15,2013-04-11 13:10:00,
2013-04-11 09:15:00,48.0,41.8,29.91,North,355,2.0,4.0,79,0.00,,,0.01,Wunderground v.1.15,2013-04-11 13:15:00,
2013-04-11 09:25:00,48.0,41.1,29.91,NNE,14,1.0,3.0,77,0.00,,,0.01,Wunderground v.1.15,2013-04-11 13:25:00,
2013-04-11 09:35:00,48.3,40.7,29.89,NNE,29,2.0,4.0,75,0.00,,,0.01,Wunderground v.1.15,2013-04-11 13:35:00,
2013-04-11 09:45:00,48.6,39.6,29.90,North,355,2.0,4.0,71,0.00,,,0.01,Wunderground v.1.15,2013-04-11 13:45:00,
2013-04-11 09:50:00,48.9,41.0,29.90,NNE,16,2.0,2.0,74,0.00,,,0.01,Wunderground v.1.15,2013-04-11 13:50:00,
2013-04-11 10:00:00,49.2,40.2,29.91,ENE,71,2.0,2.0,71,0.00,,,0.01,Wunderground v.1.15,2013-04-11 14:00:00,
2013-04-11 10:10:00,49.8,39.7,29.91,NE,36,1.0,4.0,68,0.00,,,0.01,Wunderground v.1.15,2013-04-11 14:10:00,
2013-04-11 10:20:00,49.9,39.8,29.90,NNE,26,2.0,2.0,68,0.00,,,0.01,Wunderground v.1.15,2013-04-11 14:20:00,
2013-04-11 10:30:00,51.1,39.3,29.91,NE,43,2.0,4.0,64,0.00,,,0.01,Wunderground v.1.15,2013-04-11 14:30:00,
2013-04-11 10:40:00,51.1,40.1,29.91,NE,42,1.0,4.0,66,0.00,,,0.01,Wunderground v.1.15,2013-04-11 14:40:00,
2013-04-11 10:45:00,51.3,39.5,29.91,NNE,33,2.0,4.0,64,0.00,,,0.01,Wunderground v.1.15,2013-04-11 14:45:00,
2013-04-11 10:55:00,51.1,40.5,29.91,NNE,32,1.0,3.0,67,0.00,,,0.01,Wunderground v.1.15,2013-04-11 14:55:00,
2013-04-11 11:00:00,51.4,39.6,29.92,NE,42,2.0,2.0,64,0.00,,,0.01,Wunderground v.1.15,2013-04-11 15:00:00,
2013-04-11 11:10:00,51.9,40.9,29.92,NNE,24,2.0,2.0,66,0.00,,,0.01,Wunderground v.1.15,2013-04-11 15:10:00,
2013-04-11 11:20:00,51.4,38.8,29.93,NE,55,1.0,1.0,62,0.00,,,0.01,Wunderground v.1.15,2013-04-11 15:20:00,
2013-04-11 11:30:00,51.6,39.4,29.93,NNE,27,1.0,4.0,63,0.00,,,0.01,Wunderground v.1.15,2013-04-11 15:30:00,
2013-04-11 11:40:00,52.2,39.1,29.93,ENE,58,2.0,2.0,61,0.00,,,0.01,Wunderground v.1.15,2013-04-11 15:40:00,
2013-04-11 11:50:00,52.0,41.4,29.92,NE,49,2.0,2.0,67,0.00,,,0.01,Wunderground v.1.15,2013-04-11 15:50:00,
2013-04-11 11:55:00,52.6,39.9,29.92,NNE,32,2.0,6.0,62,0.00,,,0.01,Wunderground v.1.15,2013-04-11 15:55:00,
2013-04-11 12:05:00,53.3,40.6,29.93,NNW,329,2.0,4.0,62,0.00,,,0.01,Wunderground v.1.15,2013-04-11 16:05:00,
2013-04-11 12:15:00,53.5,39.5,29.92,NNE,22,3.0,5.0,59,0.00,,,0.01,Wunderground v.1.15,2013-04-11 16:15:00,
2013-04-11 12:25:00,53.8,39.4,29.92,North,360,3.0,4.0,58,0.00,,,0.01,Wunderground v.1.15,2013-04-11 16:25:00,
2013-04-11 12:35:00,52.9,39.0,29.91,NNE,30,2.0,4.0,59,0.00,,,0.01,Wunderground v.1.15,2013-04-11 16:35:00,
2013-04-11 12:45:00,53.3,40.2,29.92,NE,51,3.0,4.0,61,0.00,,,0.01,Wunderground v.1.15,2013-04-11 16:45:00,
2013-04-11 12:55:00,53.6,39.2,29.92,NE,35,2.0,3.0,58,0.00,,,0.01,Wunderground v.1.15,2013-04-11 16:55:00,
2013-04-11 13:00:00,53.9,39.9,29.93,ENE,66,2.0,4.0,59,0.00,,,0.01,Wunderground v.1.15,2013-04-11 17:00:00,
2013-04-11 13:10:00,54.7,39.8,29.93,NNW,330,3.0,3.0,57,0.00,,,0.01,Wunderground v.1.15,2013-04-11 17:10:00,
2013-04-11 13:15:00,54.7,40.2,29.93,NNE,15,3.0,4.0,58,0.00,,,0.01,Wunderground v.1.15,2013-04-11 17:15:00,
2013-04-11 13:25:00,55.1,39.7,29.93,NNW,340,3.0,4.0,56,0.00,,,0.01,Wunderground v.1.15,2013-04-11 17:25:00,
2013-04-11 13:35:00,55.4,39.0,29.93,ESE,109,2.0,5.0,54,0.00,,,0.01,Wunderground v.1.15,2013-04-11 17:35:00,
2013-04-11 13:45:00,55.0,39.1,29.92,NE,44,3.0,4.0,55,0.00,,,0.01,Wunderground v.1.15,2013-04-11 17:45:00,
2013-04-11 13:50:00,54.8,37.5,29.92,East,86,3.0,3.0,52,0.00,,,0.01,Wunderground v.1.15,2013-04-11 17:50:00,
2013-04-11 14:00:00,55.3,39.4,29.93,NNE,21,2.0,4.0,55,0.00,,,0.01,Wunderground v.1.15,2013-04-11 18:00:00,
2013-04-11 14:05:00,55.9,39.5,29.93,NNE,33,3.0,8.0,54,0.00,,,0.01,Wunderground v.1.15,2013-04-11 18:05:00,
2013-04-11 14:15:00,56.3,38.4,29.93,NE,38,3.0,4.0,51,0.00,,,0.01,Wunderground v.1.15,2013-04-11 18:15:00,
2013-04-11 14:25:00,56.5,38.1,29.93,West,281,2.0,4.0,50,0.00,,,0.01,Wunderground v.1.15,2013-04-11 18:25:00,
2013-04-11 14:35:00,56.5,39.1,29.92,NE,39,3.0,4.0,52,0.00,,,0.01,Wunderground v.1.15,2013-04-11 18:35:00,
2013-04-11 14:45:00,56.0,36.6,29.91,NE,40,2.0,4.0,48,0.00,,,0.01,Wunderground v.1.15,2013-04-11 18:45:00,
2013-04-11 14:55:00,56.3,38.4,29.91,NE,55,3.0,4.0,51,0.00,,,0.01,Wunderground v.1.15,2013-04-11 18:55:00,
2013-04-11 15:00:00,56.3,36.3,29.92,NW,321,3.0,3.0,47,0.00,,,0.01,Wunderground v.1.15,2013-04-11 19:00:00,
2013-04-11 15:10:00,55.7,37.3,29.92,WSW,240,1.0,1.0,50,0.00,,,0.01,Wunderground v.1.15,2013-04-11 19:10:00,
2013-04-11 15:20:00,55.9,36.5,29.92,NE,53,2.0,2.0,48,0.00,,,0.01,Wunderground v.1.15,2013-04-11 19:20:00,
2013-04-11 15:30:00,56.3,34.6,29.90,ENE,66,2.0,4.0,44,0.00,,,0.01,Wunderground v.1.15,2013-04-11 19:30:00,
2013-04-11 15:35:00,56.3,35.2,29.90,NNE,24,2.0,4.0,45,0.00,,,0.01,Wunderground v.1.15,2013-04-11 19:35:00,
2013-04-11 15:45:00,56.3,34.1,29.91,NE,38,4.0,4.0,43,0.00,,,0.01,Wunderground v.1.15,2013-04-11 19:45:00,
2013-04-11 15:50:00,56.3,35.2,29.91,NNE,32,3.0,4.0,45,0.00,,,0.01,Wunderground v.1.15,2013-04-11 19:50:00,
2013-04-11 16:00:00,55.7,35.8,29.91,North,355,3.0,4.0,47,0.00,,,0.01,Wunderground v.1.15,2013-04-11 20:00:00,
2013-04-11 16:05:00,55.6,34.6,29.91,NNW,327,3.0,4.0,45,0.00,,,0.01,Wunderground v.1.15,2013-04-11 20:05:00,
2013-04-11 16:15:00,55.1,34.1,29.91,North,5,3.0,4.0,45,0.00,,,0.01,Wunderground v.1.15,2013-04-11 20:15:00,
2013-04-11 16:25:00,54.4,34.6,29.91,ENE,59,3.0,4.0,47,0.00,,,0.01,Wunderground v.1.15,2013-04-11 20:25:00,
2013-04-11 16:35:00,53.8,34.0,29.92,North,360,3.0,4.0,47,0.00,,,0.01,Wunderground v.1.15,2013-04-11 20:35:00,
2013-04-11 16:45:00,53.3,34.1,29.93,NE,36,3.0,4.0,48,0.00,,,0.01,Wunderground v.1.15,2013-04-11 20:45:00,
2013-04-11 16:55:00,52.6,31.8,29.93,NNE,21,3.0,4.0,45,0.00,,,0.01,Wunderground v.1.15,2013-04-11 20:55:00,
2013-04-11 17:00:00,52.5,31.8,29.93,NNE,31,3.0,3.0,45,0.00,,,0.01,Wunderground v.1.15,2013-04-11 21:00:00,
2013-04-11 17:10:00,52.0,32.4,29.93,NNE,13,2.0,4.0,47,0.00,,,0.01,Wunderground v.1.15,2013-04-11 21:10:00,
2013-04-11 17:20:00,51.7,31.0,29.94,NNE,23,2.0,4.0,45,0.00,,,0.01,Wunderground v.1.15,2013-04-11 21:20:00,
2013-04-11 17:30:00,51.3,31.2,29.94,NE,49,2.0,4.0,46,0.00,,,0.01,Wunderground v.1.15,2013-04-11 21:30:00,
2013-04-11 17:40:00,51.1,31.0,29.94,NE,37,2.0,4.0,46,0.00,,,0.01,Wunderground v.1.15,2013-04-11 21:40:00,
2013-04-11 17:50:00,50.8,32.3,29.95,NE,34,2.0,2.0,49,0.00,,,0.01,Wunderground v.1.15,2013-04-11 21:50:00,
2013-04-11 18:00:00,50.5,32.0,29.96,NE,47,2.0,4.0,49,0.00,,,0.01,Wunderground v.1.15,2013-04-11 22:00:00,
2013-04-11 18:05:00,50.4,32.4,29.96,NE,47,2.0,4.0,50,0.00,,,0.01,Wunderground v.1.15,2013-04-11 22:05:00,
2013-04-11 18:15:00,50.2,32.3,29.95,ESE,107,1.0,4.0,50,0.00,,,0.01,Wunderground v.1.15,2013-04-11 22:15:00,
2013-04-11 18:20:00,50.2,31.8,29.95,ESE,113,2.0,2.0,49,0.00,,,0.01,Wunderground v.1.15,2013-04-11 22:20:00,
2013-04-11 18:30:00,49.6,31.7,29.96,West,279,2.0,2.0,50,0.00,,,0.01,Wunderground v.1.15,2013-04-11 22:30:00,
2013-04-11 18:40:00,49.2,30.3,29.96,NE,51,3.0,3.0,48,0.00,,,0.01,Wunderground v.1.15,2013-04-11 22:40:00,
2013-04-11 18:50:00,48.6,29.8,29.98,NNE,24,3.0,3.0,48,0.00,,,0.01,Wunderground v.1.15,2013-04-11 22:50:00,
2013-04-11 18:55:00,48.5,30.2,29.98,NNE,24,2.0,4.0,49,0.00,,,0.01,Wunderground v.1.15,2013-04-11 22:55:00,
2013-04-11 19:05:00,48.0,29.2,29.98,East,83,2.0,4.0,48,0.00,,,0.01,Wunderground v.1.15,2013-04-11 23:05:00,
2013-04-11 19:10:00,47.9,27.6,29.98,NNE,22,2.0,2.0,45,0.00,,,0.01,Wunderground v.1.15,2013-04-11 23:10:00,
2013-04-11 19:20:00,47.4,27.6,29.98,NE,47,3.0,4.0,46,0.00,,,0.01,Wunderground v.1.15,2013-04-11 23:20:00,
2013-04-11 19:30:00,47.0,28.8,29.98,NNE,30,2.0,2.0,49,0.00,,,0.01,Wunderground v.1.15,2013-04-11 23:30:00,
2013-04-11 19:40:00,46.8,28.1,29.98,NE,46,3.0,4.0,48,0.00,,,0.01,Wunderground v.1.15,2013-04-11 23:40:00,
2013-04-11 19:50:00,46.5,28.8,29.98,NE,49,2.0,4.0,50,0.00,,,0.01,Wunderground v.1.15,2013-04-11 23:50:00,
2013-04-11 20:00:00,46.2,30.0,29.99,NE,55,3.0,4.0,53,0.00,,,0.01,Wunderground v.1.15,2013-04-12 00:00:00,
2013-04-11 20:10:00,46.1,29.9,29.99,NNE,19,2.0,4.0,53,0.00,,,0.01,Wunderground v.1.15,2013-04-12 00:10:00,
2013-04-11 20:20:00,45.8,30.1,29.99,NE,53,1.0,1.0,54,0.00,,,0.01,Wunderground v.1.15,2013-04-12 00:20:00,
2013-04-11 20:30:00,45.7,30.9,30.00,NE,34,0.0,4.0,56,0.00,,,0.01,Wunderground v.1.15,2013-04-12 00:30:00,
2013-04-11 20:35:00,45.5,29.8,30.00,NNE,33,1.0,4.0,54,0.00,,,0.01,Wunderground v.1.15,2013-04-12 00:35:00,
2013-04-11 20:45:00,45.4,30.2,30.00,NNE,13,2.0,4.0,55,0.00,,,0.01,Wunderground v.1.15,2013-04-12 00:45:00,
2013-04-11 20:50:00,45.2,30.4,30.00,NNE,19,2.0,6.0,56,0.00,,,0.01,Wunderground v.1.15,2013-04-12 00:50:00,
2013-04-11 21:00:00,44.9,29.7,30.01,NE,37,1.0,4.0,55,0.00,,,0.01,Wunderground v.1.15,2013-04-12 01:00:00,
2013-04-11 21:05:00,44.8,30.0,30.01,NNE,15,2.0,4.0,56,0.00,,,0.01,Wunderground v.1.15,2013-04-12 01:05:00,
2013-04-11 21:15:00,44.5,29.8,30.01,NE,45,1.0,3.0,56,0.00,,,0.01,Wunderground v.1.15,2013-04-12 01:15:00,
2013-04-11 21:25:00,44.2,29.5,30.01,East,98,2.0,4.0,56,0.00,,,0.01,Wunderground v.1.15,2013-04-12 01:25:00,
2013-04-11 21:35:00,43.9,28.8,30.02,NNE,16,2.0,4.0,55,0.00,,,0.01,Wunderground v.1.15,2013-04-12 01:35:00,
2013-04-11 21:40:00,43.8,27.8,30.02,North,355,1.0,4.0,53,0.00,,,0.01,Wunderground v.1.15,2013-04-12 01:40:00,
2013-04-11 21:50:00,43.3,26.8,30.03,East,97,1.0,1.0,52,0.00,,,0.01,Wunderground v.1.15,2013-04-12 01:50:00,
2013-04-11 21:55:00,43.2,27.2,30.03,East,88,2.0,2.0,53,0.00,,,0.01,Wunderground v.1.15,2013-04-12 01:55:00,
2013-04-11 22:05:00,42.9,25.5,30.04,NE,44,2.0,4.0,50,0.00,,,0.01,Wunderground v.1.15,2013-04-12 02:05:00,
2013-04-11 22:15:00,42.6,25.7,30.04,NE,55,2.0,4.0,51,0.00,,,0.01,Wunderground v.1.15,2013-04-12 02:15:00,
2013-04-11 22:25:00,42.3,28.1,30.04,NNE,22,2.0,4.0,57,0.00,,,0.01,Wunderground v.1.15,2013-04-12 02:25:00,
2013-04-11 22:30:00,42.1,28.4,30.05,NNE,22,1.0,4.0,58,0.00,,,0.01,Wunderground v.1.15,2013-04-12 02:30:00,
2013-04-11 22:40:00,41.2,28.8,30.05,North,5,2.0,2.0,61,0.00,,,0.01,Wunderground v.1.15,2013-04-12 02:40:00,
2013-04-11 22:45:00,40.9,28.5,30.04,NNE,17,2.0,4.0,61,0.00,,,0.01,Wunderground v.1.15,2013-04-12 02:45:00,
2013-04-11 22:55:00,40.6,29.4,30.04,NE,51,2.0,5.0,64,0.00,,,0.01,Wunderground v.1.15,2013-04-12 02:55:00,
2013-04-11 23:05:00,40.2,29.4,30.04,North,11,3.0,4.0,65,0.00,,,0.01,Wunderground v.1.15,2013-04-12 03:05:00,
2013-04-11 23:15:00,39.8,29.7,30.05,ESE,109,2.0,4.0,67,0.00,,,0.01,Wunderground v.1.15,2013-04-12 03:15:00,
2013-04-11 23:20:00,39.6,29.9,30.05,NE,47,2.0,4.0,68,0.00,,,0.01,Wunderground v.1.15,2013-04-12 03:20:00,
2013-04-11 23:30:00,39.5,30.5,30.06,NNE,19,1.0,4.0,70,0.00,,,0.01,Wunderground v.1.15,2013-04-12 03:30:00,
2013-04-11 23:35:00,39.3,31.7,30.06,NNE,22,1.0,4.0,74,0.00,,,0.02,Wunderground v.1.15,2013-04-12 03:35:00,
2013-04-11 23:45:00,38.6,33.0,30.05,NE,42,1.0,4.0,80,0.15,,,0.04,Wunderground v.1.15,2013-04-12 03:45:00,
2013-04-11 23:55:00,37.8,33.4,30.05,NNE,26,1.0,4.0,84,0.13,,,0.06,Wunderground v.1.15,2013-04-12 03:55:00,